[[{"header":{"parameterUnit":"m.s-1","parameterCategory":1,"la1":30.2991,"la2":30.254,"lo1":-89.0895,"lo2":-89.0444,"dy":0.0017,"dx":0.0017,"nx":28,"ny":28,"refTime":"2024-03-22T09:00:00:Z","depth":0,"parameterNumber":2,"parameterNumberName":"U-component_of_WINDS"},"data":[0,0,0,0,0,0,0,0,0,0,0,0,0,0,0,0,0,0,0,0,0,0,0,0,0,0,0,0,0,0,0,0,0,0,0,0,0,0,0,0,0,0,0,0,0,0,0,0,0,0,0,0,0,0,0,0,0,0,5.3774,5.3776,0,5.3884,5.3885,5.3886,5.383,5.3827,5.3824,5.3822,5.3934,5.3939,5.3945,0,0,0,0,0,0,0,0,0,0,0,0,0,5.3517,5.3522,5.3774,5.3776,5.3777,5.3884,5.3885,5.3887,5.3831,5.3827,5.3824,5.382,5.3932,5.3939,5.3945,0,0,0,0,0,0,0,0,0,0,0,0,0,5.3628,5.3524,5.3774,5.3762,5.3762,5.3883,5.3885,5.3887,5.3831,5.3827,5.3823,5.3819,5.393,5.3938,5.3946,5.4086,0,0,5.3972,5.3976,0,0,0,0,0,0,0,0,5.3622,5.3638,5.3762,5.3763,5.3763,5.3839,5.3836,5.3954,5.3832,5.3805,5.3821,5.3816,5.3906,5.3916,5.3946,5.4092,5.4096,5.3973,5.3978,5.3982,5.3984,0,0,0,0,0,0,0,5.3614,5.3633,5.3818,5.3764,5.3765,5.3751,5.3762,5.3858,5.3878,5.3807,5.3803,5.3817,5.3905,5.3938,5.3948,5.4098,5.3973,5.3981,5.3986,5.3989,5.4365,5.437,0,0,0,0,0,0,5.3607,5.3626,5.3814,5.3821,5.368,5.3759,5.3772,5.3819,5.3877,5.3882,5.3821,5.3814,5.3926,5.3938,5.3952,5.4121,5.3982,5.399,5.3995,5.4361,5.4367,5.4372,0,0,0,0,0,0,5.3602,5.3624,5.381,5.3723,5.3745,5.3768,5.3822,5.3823,5.3856,5.3887,5.3891,5.385,5.3923,5.394,5.4054,5.4124,5.3994,5.4002,5.4355,5.4362,5.4369,5.4459,0,0,0,0,0,0,5.3595,5.3623,5.3676,5.3724,5.375,5.391,5.3826,5.3829,5.3871,5.3863,5.3916,5.3921,5.392,5.4041,5.4062,5.4133,5.4008,5.4349,5.4358,5.4367,5.445,5.4468,5.4484,0,0,0,0,0,5.3586,5.3696,5.3679,5.3702,5.3817,5.3914,5.3928,5.3926,5.3877,5.3931,5.3951,5.3919,5.4113,5.4053,5.4076,5.4151,5.4344,5.4356,5.4366,5.4442,5.4464,5.4484,0,0,0,0,0,0,5.3655,5.3702,5.3683,5.3813,5.386,5.3904,5.3972,5.395,5.4011,5.4001,5.3995,5.4008,5.4126,5.415,5.4083,5.429,5.4221,5.4237,5.4271,5.4292,5.4309,5.4301,5.4015,0,0,0,0,0,5.3685,5.376,5.3797,5.3908,5.3932,5.3948,5.399,5.3984,5.4033,5.4052,5.408,5.4129,5.42,5.4248,5.4315,5.4453,5.4464,5.4516,5.4533,5.4547,5.4561,5.4637,5.466,5.4408,5.4408,5.4408,0,0,5.3749,5.3784,5.3831,5.3923,5.3958,5.4036,5.3965,5.405,5.4108,5.4065,5.4174,5.4197,5.425,5.4377,5.4434,5.44,5.4633,5.4561,5.4572,5.4578,5.465,5.4674,5.4696,5.4415,5.4414,5.4413,0,0,5.3905,5.3938,5.4035,5.4072,5.4127,5.4137,5.4161,5.4209,5.4222,5.4332,5.4302,5.4371,5.4494,5.4534,5.457,5.4743,5.4716,5.4765,5.4855,5.4929,5.4949,5.4966,5.5029,5.5051,5.4779,5.4779,5.4779,0,5.3977,5.4092,5.4087,5.4175,5.4217,5.4182,5.428,5.4317,5.4391,5.4421,5.4382,5.4537,5.457,5.4707,5.4749,5.4779,5.4806,5.4759,5.4946,5.4964,5.498,5.504,5.5063,5.4785,5.4784,5.4783,5.4783,0,5.4179,5.4259,5.4331,5.4404,5.4454,5.4546,5.4556,5.4607,5.4597,5.4612,5.4725,5.4764,5.484,5.4871,5.4862,5.5007,5.4984,5.4946,5.4876,5.501,5.5066,5.5089,5.4793,5.4791,5.4789,5.4788,0,0,5.438,5.445,5.4477,5.451,5.4569,5.4632,5.4723,5.4797,5.4842,5.4894,5.4972,5.5078,5.5043,5.5085,5.508,5.5145,5.5281,5.5099,5.51,5.5132,5.5444,5.5472,5.5499,5.5263,5.5268,5.5271,5.5439,0,5.454,5.47,5.4699,5.4848,5.4923,5.4892,5.4972,5.5017,5.5033,5.5099,5.5117,5.5193,5.5141,5.5166,5.5229,5.5251,5.5343,5.5238,5.5335,5.5339,5.5323,5.5528,5.5558,5.5715,5.5461,5.5465,5.5467,0,5.4748,5.4809,5.4965,5.5014,5.5045,5.5117,5.5186,5.5249,5.53,5.5308,5.5355,5.5341,5.5435,5.5362,5.5492,5.5421,5.5461,5.5478,5.5484,5.5493,5.5411,5.5543,5.5765,5.5789,5.5501,5.5499,5.5496,0,5.4881,5.5001,5.511,5.514,5.5199,5.5251,5.5278,5.5325,5.537,5.543,5.5459,5.553,5.5568,5.5624,5.5629,5.5576,5.576,5.5688,5.577,5.577,5.581,5.5807,5.6042,5.5835,5.5835,5.5834,5.5834,0,5.506,5.5157,5.5171,5.5238,5.5346,5.5344,5.5451,5.5474,5.5516,5.5588,5.5565,5.5632,5.5635,5.5705,5.571,5.5817,5.5835,5.5844,5.5844,5.5846,5.5845,5.5872,5.5862,5.584,5.5839,5.5838,5.5837,0,5.5227,5.524,5.5357,5.5404,5.5418,5.5496,5.5536,5.5601,5.5615,5.5706,5.5727,5.575,5.5831,5.5842,5.5937,5.594,5.6069,5.6058,5.6052,5.6051,5.6132,5.6124,5.6392,5.6428,5.6198,5.62,5.6202,0,5.534,5.5414,5.547,5.5516,5.5546,5.5621,5.5667,5.5669,5.5718,5.5783,5.584,5.5918,5.5981,5.6112,5.6138,5.621,5.62,5.6289,5.6211,5.6211,5.6203,5.6198,5.6206,5.6304,5.6307,5.6309,5.6311,0,5.5542,5.5545,5.5612,5.5682,5.5738,5.5794,5.5846,5.5885,5.5893,5.595,5.6033,5.6082,5.6179,5.6257,5.6329,5.6358,5.6337,5.6335,5.6358,5.6361,5.6355,5.636,5.6094,5.6329,5.6327,5.6326,5.6325,5.6324,5.5686,5.575,5.58,5.5876,5.5915,5.5965,5.6028,5.6051,5.612,5.6199,5.6196,5.6287,5.6337,5.6432,5.6466,5.6537,5.6508,5.6541,5.6549,5.6558,5.6566,5.6344,5.655,5.655,5.6549,5.6549,5.6549,0,5.5886,5.5917,5.5987,5.6061,5.6121,5.6096,5.6152,5.6205,5.6285,5.6334,5.6397,5.6492,5.6569,5.6601,5.6676,5.6728,5.672,5.6747,5.6744,5.6751,5.6587,5.6561,5.6752,5.6752,5.6752,5.6752,5.6752,5.6752,5.5998,5.6106,5.6115,5.6243,5.6273,5.6362,5.6397,5.6443,5.6482,5.659,5.6653,5.6674,5.6716,5.6794,5.6864,5.6871,5.69,5.6933,5.6936,5.6783,5.6762,5.6742,5.6717,5.6939,5.6939,5.7093,5.7095,5.7096]},{"header":{"parameterUnit":"m.s-1","parameterCategory":1,"la1":30.2991,"la2":30.254,"lo1":-89.0895,"lo2":-89.0444,"dy":0.0017,"dx":0.0017,"nx":28,"ny":28,"refTime":"2024-03-22T09:00:00:Z","depth":0,"parameterNumber":3,"parameterNumberName":"V-component_of_WINDS"},"data":[0,0,0,0,0,0,0,0,0,0,0,0,0,0,0,0,0,0,0,0,0,0,0,0,0,0,0,0,0,0,0,0,0,0,0,0,0,0,0,0,0,0,0,0,0,0,0,0,0,0,0,0,0,0,0,0,0,0,-3.9088,-3.909,0,-3.9237,-3.9239,-3.9241,-3.9248,-3.9246,-3.9245,-3.9243,-3.9397,-3.9402,-3.9408,0,0,0,0,0,0,0,0,0,0,0,0,0,-3.8812,-3.8817,-3.9088,-3.909,-3.9092,-3.9237,-3.9239,-3.9241,-3.9248,-3.9246,-3.9244,-3.9242,-3.9395,-3.9401,-3.9408,0,0,0,0,0,0,0,0,0,0,0,0,0,-3.8944,-3.8819,-3.9088,-3.9113,-3.9117,-3.9237,-3.9239,-3.9242,-3.9249,-3.9246,-3.9244,-3.9241,-3.9392,-3.9401,-3.9409,-3.9514,0,0,-3.9435,-3.9439,0,0,0,0,0,0,0,0,-3.8936,-3.8954,-3.9107,-3.9111,-3.9116,-3.9221,-3.9198,-3.9333,-3.925,-3.9199,-3.9243,-3.924,-3.934,-3.9353,-3.9387,-3.9521,-3.9528,-3.9436,-3.9441,-3.9445,-3.9447,0,0,0,0,0,0,0,-3.8927,-3.8947,-3.9147,-3.911,-3.9115,-3.9118,-3.9133,-3.9224,-3.9282,-3.9203,-3.9204,-3.9221,-3.9342,-3.9379,-3.9391,-3.953,-3.9436,-3.9444,-3.9449,-3.9452,-3.976,-3.9763,0,0,0,0,0,0,-3.8913,-3.894,-3.9142,-3.9152,-3.9018,-3.9125,-3.9142,-3.919,-3.9281,-3.9293,-3.9223,-3.9221,-3.9365,-3.9381,-3.9396,-3.9526,-3.9445,-3.9453,-3.9458,-3.9757,-3.9761,-3.9764,0,0,0,0,0,0,-3.8907,-3.8931,-3.9136,-3.9046,-3.9072,-3.9132,-3.9186,-3.9195,-3.9231,-3.9297,-3.9308,-3.925,-3.9364,-3.9384,-3.9485,-3.9531,-3.9457,-3.9465,-3.9754,-3.9758,-3.9762,-3.9786,0,0,0,0,0,0,-3.8899,-3.8929,-3.8968,-3.9047,-3.9077,-3.9223,-3.9189,-3.9199,-3.9245,-3.9244,-3.9324,-3.9335,-3.9363,-3.9472,-3.9494,-3.9542,-3.9471,-3.975,-3.9756,-3.9761,-3.9781,-3.9791,-3.9799,0,0,0,0,0,-3.8889,-3.8969,-3.897,-3.8995,-3.9128,-3.9225,-3.9243,-3.9273,-3.9249,-3.929,-3.9333,-3.9333,-3.9523,-3.9483,-3.9507,-3.9558,-3.9747,-3.9754,-3.9761,-3.9777,-3.9789,-3.9799,0,0,0,0,0,0,-3.8895,-3.898,-3.8982,-3.909,-3.915,-3.9226,-3.9279,-3.9284,-3.9353,-3.9348,-3.9384,-3.9402,-3.9502,-3.954,-3.9494,-3.9665,-3.9632,-3.9644,-3.9637,-3.9648,-3.9657,-3.9646,-3.9478,0,0,0,0,0,-3.8909,-3.898,-3.905,-3.9139,-3.9169,-3.9219,-3.9262,-3.928,-3.9344,-3.937,-3.942,-3.9482,-3.9556,-3.9604,-3.9676,-3.9787,-3.9805,-3.9834,-3.9843,-3.985,-3.986,-3.9923,-3.9937,-3.9787,-3.9787,-3.9786,0,0,-3.8938,-3.8993,-3.9036,-3.9141,-3.919,-3.9264,-3.924,-3.9318,-3.9374,-3.9382,-3.9481,-3.952,-3.9592,-3.9699,-3.9748,-3.9734,-3.9906,-3.9859,-3.9864,-3.987,-3.9931,-3.9945,-3.9958,-3.9791,-3.979,-3.979,0,0,-3.9029,-3.9078,-3.9157,-3.9207,-3.9281,-3.9314,-3.9333,-3.9409,-3.9435,-3.9534,-3.9543,-3.9609,-3.9735,-3.9787,-3.9829,-3.9941,-3.9944,-3.9964,-4.001,-4.007,-4.0082,-4.0093,-4.0134,-4.0148,-3.9974,-3.9974,-3.9974,0,-3.9056,-3.9167,-3.9197,-3.9276,-3.9323,-3.9334,-3.9415,-3.9462,-3.9556,-3.9588,-3.957,-3.973,-3.9779,-3.9899,-3.9926,-3.996,-3.9984,-3.9955,-4.0078,-4.0089,-4.0099,-4.0139,-4.0154,-3.9976,-3.9975,-3.9975,-3.9975,0,-3.9197,-3.9274,-3.9329,-3.942,-3.9473,-3.9552,-3.9596,-3.9646,-3.966,-3.9695,-3.9797,-3.9856,-3.9941,-3.9971,-3.9985,-4.0093,-4.0082,-4.007,-4.0038,-4.0115,-4.0153,-4.0168,-3.9978,-3.9978,-3.9977,-3.9977,0,0,-3.9296,-3.9403,-3.9423,-3.9464,-3.9548,-3.9608,-3.9689,-3.9771,-3.9814,-3.9879,-3.9948,-4.0055,-4.0046,-4.0094,-4.0115,-4.0168,-4.0254,-4.015,-4.0153,-4.0168,-4.0378,-4.0386,-4.0403,-4.0256,-4.0259,-4.0262,-4.0372,0,-3.9397,-3.954,-3.957,-3.9694,-3.9766,-3.9778,-3.9849,-3.9908,-3.9943,-4.001,-4.0049,-4.0125,-4.0106,-4.0135,-4.0189,-4.0232,-4.0297,-4.0225,-4.0322,-4.0325,-4.0304,-4.0423,-4.0432,-4.0533,-4.0387,-4.0389,-4.0391,0,-3.9534,-3.9602,-3.9733,-3.9807,-3.9839,-3.9901,-3.998,-4.0043,-4.0111,-4.0133,-4.0188,-4.0203,-4.0288,-4.0252,-4.037,-4.0321,-4.0362,-4.039,-4.0395,-4.0405,-4.0363,-4.0437,-4.0566,-4.0581,-4.0415,-4.0413,-4.0411,0,-3.9593,-3.9718,-3.9813,-3.9848,-3.9937,-3.9981,-4.0021,-4.0086,-4.0134,-4.0203,-4.0235,-4.0313,-4.0356,-4.0416,-4.0452,-4.0422,-4.0569,-4.0535,-4.059,-4.0589,-4.0621,-4.0618,-4.0759,-4.0647,-4.0646,-4.0646,-4.0646,0,-3.9703,-3.9783,-3.9841,-3.9899,-3.999,-4.0024,-4.0113,-4.0153,-4.0211,-4.0278,-4.0293,-4.0355,-4.0399,-4.0468,-4.0497,-4.0591,-4.0611,-4.0631,-4.0638,-4.0631,-4.0628,-4.0659,-4.0653,-4.065,-4.0649,-4.0648,-4.0648,0,-3.9786,-3.9827,-3.9932,-4.0008,-4.0029,-4.0092,-4.0158,-4.0216,-4.0251,-4.0336,-4.0358,-4.0414,-4.0496,-4.0538,-4.0641,-4.066,-4.0767,-4.0769,-4.0744,-4.0747,-4.08,-4.0795,-4.0966,-4.099,-4.0861,-4.0862,-4.0863,0,-3.9853,-3.9915,-3.9998,-4.0044,-4.0084,-4.0158,-4.0207,-4.0244,-4.0294,-4.0377,-4.0425,-4.0508,-4.0576,-4.0707,-4.0758,-4.0837,-4.0841,-4.0896,-4.0853,-4.0844,-4.0843,-4.0839,-4.0846,-4.0903,-4.0904,-4.0905,-4.0906,0,-3.9969,-3.9987,-4.0057,-4.0135,-4.0193,-4.0256,-4.0319,-4.0355,-4.0402,-4.0459,-4.0543,-4.0596,-4.0701,-4.0784,-4.0866,-4.0908,-4.0916,-4.0919,-4.0937,-4.093,-4.0913,-4.0924,-4.0765,-4.0915,-4.0914,-4.0914,-4.0913,-4.0913,-4.0047,-4.0103,-4.0171,-4.0248,-4.0299,-4.0357,-4.0415,-4.0458,-4.0529,-4.0617,-4.0635,-4.0724,-4.0792,-4.0904,-4.0948,-4.1019,-4.1007,-4.1032,-4.1038,-4.1044,-4.1047,-4.0901,-4.1034,-4.1034,-4.1034,-4.1033,-4.1033,0,-4.0165,-4.0209,-4.028,-4.0367,-4.0428,-4.043,-4.0499,-4.0551,-4.0629,-4.0691,-4.0758,-4.0856,-4.0936,-4.0993,-4.1075,-4.1121,-4.1127,-4.1142,-4.1139,-4.1149,-4.1052,-4.103,-4.1136,-4.1136,-4.1136,-4.1136,-4.1136,-4.1136,-4.0234,-4.0329,-4.0354,-4.0475,-4.0519,-4.0606,-4.0646,-4.07,-4.075,-4.0858,-4.0925,-4.0961,-4.1022,-4.1109,-4.1183,-4.1198,-4.1228,-4.1243,-4.1258,-4.1166,-4.1155,-4.1145,-4.1124,-4.1249,-4.1249,-4.1348,-4.1349,-4.135]}]]